Flag for USA

Past Weather in 41°55'59"N, 91°40'27"W, USA — Yesterday and Last 2 Weeks

Currently: 32 °F. Overcast. (Weather station: Cedar Rapids Municipal Airport, USA). See more current weather

Past Weather in 41°55'59"N, 91°40'27"W — Graph

°F

41°55'59"N, 91°40'27"W Temperature Yesterday

Maximum temperature yesterday: 25 °F (at 1:01 am)
Minimum temperature yesterday: 13 °F (at 8:52 pm)
Average temperature yesterday: 20 °F

High & Low Weather Summary for the Past Weeks

 TemperatureHumidityPressure
High37 °F (Jan 13, 12:52 pm)100% (Jan 5, 9:52 am)30.42 "Hg (Jan 5, 9:52 am)
Low12 °F (Jan 5, 5:52 am)70% (Jan 13, 12:52 pm)29.26 "Hg (Jan 15, 4:52 am)
Average26 °F88%30.01 "Hg
* Reported Jan 4 1:08 pm — Jan 19 1:52 pm, 41°55'59"N, 91°40'27"W. Weather by CustomWeather, © 2021

Note: Actual official high and low records may vary slightly from our data, if they occured in-between our weather recording intervals... More about our weather records

41°55'59"N, 91°40'27"W Weather History for the Previous 24 Hours

Scroll right to see more
 ConditionsComfort  
Time TempWeatherWind HumidityBarometerVisibility
1:52 pm
Tue, Jan 19
31 °FOvercast.18 mph82%30.14 "Hg6 mi
1:33 pm31 °FLight snow. Overcast.20 mph82%30.11 "Hg2 mi
1:05 pm31 °FLight snow. Mostly cloudy.16 mph79%30.11 "Hg5 mi
12:52 pm31 °FLight snow. Mostly cloudy.20 mph79%30.16 "Hg7 mi
12:32 pm31 °FMore clouds than sun.16 mph82%30.12 "Hg8 mi
12:10 pm31 °FMostly cloudy.16 mph85%30.13 "Hg7 mi
11:52 am30 °FIce fog.7 mph85%30.18 "Hg6 mi
11:41 am30 °FIce fog.7 mph89%30.15 "Hg6 mi
11:00 am28 °FIce fog.8 mph89%30.17 "Hg4 mi
10:12 am27 °FIce fog.10 mph92%30.18 "Hg3 mi
9:52 am26 °FIce fog.10 mph92%30.22 "Hg2 mi
8:52 am22 °FIce fog.6 mph92%30.20 "Hg4 mi
7:52 am21 °FIce fog.5 mph88%30.19 "Hg5 mi
6:52 am21 °FOvercast.5 mph92%30.19 "Hg7 mi
5:52 am20 °FMostly cloudy.5 mph92%30.18 "Hg7 mi
5:36 am20 °FMostly cloudy.6 mph89%30.14 "Hg7 mi
4:52 am20 °FIce fog.5 mph89%30.18 "Hg6 mi
3:52 am19 °FOvercast.6 mph88%30.19 "Hg7 mi
2:52 am18 °FMostly cloudy.6 mph88%30.18 "Hg8 mi
1:52 am16 °FOvercast.6 mph87%30.18 "Hg7 mi
12:52 am15 °FOvercast.5 mph91%30.16 "Hg8 mi
11:52 pm
Mon, Jan 18
13 °FClear.6 mph92%30.16 "Hg9 mi
10:52 pm16 °FClear.8 mph87%30.15 "Hg9 mi
9:52 pm14 °FClear.5 mph87%30.13 "Hg9 mi
8:52 pm13 °FClear.9 mph92%30.13 "Hg9 mi
7:52 pm14 °FClear.9 mph87%30.11 "Hg9 mi
6:52 pm14 °FClear.9 mph87%30.09 "Hg9 mi
5:52 pm15 °FClear.10 mph87%30.06 "Hg10 mi
4:52 pm18 °FSunny.7 mph84%30.04 "Hg10 mi
3:52 pm21 °FSunny.13 mph81%30.02 "Hg10 mi
Weather by CustomWeather, © 2021

See weather overview